User: anonymous   Login
Location: Churchill
(58.7670°N, 94.1670°W)
Time: 02:22:52
(UTC-05:00)
Language:

Cosmos 1315 Rocket - Orbit

View from above orbital plane
View from above orbital plane
View from above satellite
View from above satellite

Ground track
Ground track

The orbit data is extracted from the following two-line orbital elements,

1 12904U 81103B   16211.55615936  .00000801  00000-0  54314-4 0  9990
2 12904  81.1780 283.9539 0029321  48.1919 312.1801 15.04996301444298
Epoch (UTC): 29 July 2016 13:20:52
Eccentricity: 0.0029321
inclination: 81.1780°
perigee height: 531 km
apogee height: 572 km
right ascension of ascending node: 283.9539°
argument of perigee: 48.1919°
revolutions per day: 15.04996301
mean anomaly at epoch: 312.1801°
orbit number at epoch: 44429

The dashed part of the orbit path shows where the satellite is in the earth's shadow,  

DLR